DELTA 1 DEB, 21565

Orbit data source: Space-Track

DELTA 1 DEB, 21565 is space debris in SSO originally from a launch on Thu, 12 Jun 1975 UTC launched from the Air Force Western Test Range (AFWTR). Debris objects in space refer to the collection of defunct objects orbiting the Earth. Examples of debris include non-operational satellites, rocket bodies, and fragments generated from explosions, collisions, or faulty payload assembly.

Loading next visibility...
Identifier
21565, 1975-052HK
Orbit
SSO
Country
Flag of USUS
Related business
Manufacturer
Unknown
Mission
Spacecraft
Bus & Motor
Unknown
Mass
Unknown
Launch date (UTC)
1975-06-12 (51 years ago)
Launch vehicle
Unknown
Launch site
Air Force Western Test Range (AFWTR)
Object type
Payload
Rocket body
Debris
Shape & HBR
Unknown shape, 0.2 m
Radar Cross Section
Small (<0.1 m²)

Expand to show TLE details & history
Last TLE update: 12 hours ago

TLE from 12 hours ago
0 DELTA 1 DEB
1 21565U 75052HK  26124.60764992  .00000187  00000-0  71713-3 0  9994
2 21565  99.8279 261.0655 0364638  62.3216 316.6476 12.81834792628576
Epoch: 2026-05-04T14:35Z
TLE epoch observation values (Epoch: 2026-05-04T14:35:00.953Z)
Latitude
15.74498°
Longitude
177.03205°
Altitude
1,136.634 km
Speed
7.379 km/s
True Right ascension
17h 13m 07s
True Declination
15° 39' 36"
Sunlit
Object was in full shadow at epoch
Visualization orbit readout
Latitude
Unknown
Longitude
Unknown
Altitude
Unknown
Speed
Unknown
Apparent Right ascension
Unknown
Apparent Declination
Unknown
Sunlit
N/A
Visualization observer readout
Local Sidereal Time
10:38:14
Azimuth
Unknown
Elevation
Unknown
Doppler factor
Unknown
Orbital elements
Apogee altitude
1,612.619 km
Perigee altitude
1,050.374 km
Semi-major axis
7,709.633 km
Eccentricity
0.03646
Inclination
99.8279°
RAAN
261.0655°
Arg. of periapsis
62.3216°
True anomaly
313.68231°
Mean anomaly
316.6476°
Eccentric anomaly
315.17481°
Mean motion
3.20621 °/min
Orbital period
112.28 mins
BSTAR
0.00071713
Loading maneuver chart data...
Computing Atmospheric mass density...
Loading historical data...
Loading historical data...
Loading historical data...
Loading historical data...
Loading historical data...
Loading historical data...
Loading historical data...

Documentation

Showing up to 5 results
|